星链-11667 (STARLINK-11667)

导读

STARLINK-11667是美国星链计划中的一颗低轨卫星,于2025年4月13日发射升空。它隶属于SpaceX打造的Starlink卫星互联网星座,主要用于为全球范围内偏远地区、地面网络覆盖不足区域提供高速低延迟的宽带互联网服务,进一步扩展星链星座的全球网络覆盖容量与服务能力。

基本信息
目录编号:
63550
目录名称:
STARLINK-11667
国际标识:
2025-075C
轨道中心:
EARTH
卫星名称:
星链-11667
卫星全名:
星链-11667 (STARLINK-11667)
卫星状态:
在轨 (已飞行510 天)
发射日期:
2025-04-13 UTC
国别 :
美国 (US)
星等 :
--
轨道信息
数据来源 国际轨道数据
星历时间: 2026-09-05T02:55:58+0800
19小时前
查看轨道信息
半长轴: 6734.102km
偏心率: 0.0001825
轨道倾角: 42.999°
近地点辐角 243.527°
升交点赤经 154.487°
平近点角 116.541°
近地点: 354.736km
远地点: 357.194km
周期: 91.660分钟
每日圈数: 15.710255
详细信息
固有亮度:
5
最大亮度:
2.5
卫星平台:
Starlink V1.0
覆盖范围:
全球
运营商:
太空探索技术公司
运营商所在国:
美国
制造商(研发单位):
太空探索技术公司
制造商所在国:
美国
使用方式:
暂无
卫星简介
Starlink 计划是 SpaceX 推出的全球卫星互联网项目,通过发射低轨道卫星,为全球尤其是偏远地区提供高速、低延迟的互联网服务。自 2019 年起,Starlink 已部署数千颗卫星,旨在缩小全球数字鸿沟,推动互联网普及。该项目还为军事、航空等行业提供通信支持,带来广泛经济效益。
2D轨道图
3D轨道图
轨道高度分析图
轨道倾角分析图
轨道综合分析图
查看轨道综合分析图
交会数据列表
事件ID 空间交会对象 最接近时刻(TCA) 交会距离 交会风险概率(CRP) 交会风险指数(CRI) 操作
CDM_260906-201206-355006-424121
2026-09-06T
20:12:53+0000
2.602 km
极远距离
8.656147E-7 极低风险 0.34